Year,Month,Day,Hour,Minute,Value (Times are PST for insolation in W/m^2)
2008,12,03,00,00,0.00
2008,12,03,00,01,0.00
2008,12,03,00,02,0.00
2008,12,03,00,03,0.00
2008,12,03,00,04,0.00
2008,12,03,00,05,0.00
2008,12,03,00,06,0.00
2008,12,03,00,07,0.00
2008,12,03,00,08,0.00
2008,12,03,00,09,0.00
2008,12,03,00,10,0.00
2008,12,03,00,11,0.00
2008,12,03,00,12,0.00
2008,12,03,00,13,0.00
2008,12,03,00,14,0.00
2008,12,03,00,15,0.00
2008,12,03,00,16,0.00
2008,12,03,00,17,0.00
2008,12,03,00,18,0.00
2008,12,03,00,19,0.00
2008,12,03,00,20,0.00
2008,12,03,00,21,0.00
2008,12,03,00,22,0.00
2008,12,03,00,23,0.00
2008,12,03,00,24,0.00
2008,12,03,00,25,0.00
2008,12,03,00,26,0.00
2008,12,03,00,27,0.00
2008,12,03,00,28,0.00
2008,12,03,00,29,0.00
2008,12,03,00,30,0.00
2008,12,03,00,31,0.00
2008,12,03,00,32,0.00
2008,12,03,00,33,0.00
2008,12,03,00,34,0.00
2008,12,03,00,35,0.00
2008,12,03,00,36,0.00
2008,12,03,00,37,0.00
2008,12,03,00,38,0.00
2008,12,03,00,39,0.00
2008,12,03,00,40,0.00
2008,12,03,00,41,0.00
2008,12,03,00,42,0.00
2008,12,03,00,43,0.00
2008,12,03,00,44,0.00
2008,12,03,00,45,0.00
2008,12,03,00,46,0.00
2008,12,03,00,47,0.00
2008,12,03,00,48,0.00
2008,12,03,00,49,0.00
2008,12,03,00,50,0.00
2008,12,03,00,51,0.00
2008,12,03,00,52,0.00
2008,12,03,00,53,0.00
2008,12,03,00,54,0.00
2008,12,03,00,55,0.00
2008,12,03,00,56,0.00
2008,12,03,00,57,0.00
2008,12,03,00,58,0.00
2008,12,03,00,59,0.00
2008,12,03,01,00,0.00
2008,12,03,01,01,0.00
2008,12,03,01,02,0.00
2008,12,03,01,03,0.00
2008,12,03,01,04,0.00
2008,12,03,01,05,0.00
2008,12,03,01,06,0.00
2008,12,03,01,07,0.00
2008,12,03,01,08,0.00
2008,12,03,01,09,0.00
2008,12,03,01,10,0.00
2008,12,03,01,11,0.00
2008,12,03,01,12,0.00
2008,12,03,01,13,0.00
2008,12,03,01,14,0.00
2008,12,03,01,15,0.00
2008,12,03,01,16,0.00
2008,12,03,01,17,0.00
2008,12,03,01,18,0.00
2008,12,03,01,19,0.00
2008,12,03,01,20,0.00
2008,12,03,01,21,0.00
2008,12,03,01,22,0.00
2008,12,03,01,23,0.00
2008,12,03,01,24,0.00
2008,12,03,01,25,0.00
2008,12,03,01,26,0.00
2008,12,03,01,27,0.00
2008,12,03,01,28,0.00
2008,12,03,01,29,0.00
2008,12,03,01,30,0.00
2008,12,03,01,31,0.00
2008,12,03,01,32,0.00
2008,12,03,01,33,0.00
2008,12,03,01,34,0.00
2008,12,03,01,35,0.00
2008,12,03,01,36,0.00
2008,12,03,01,37,0.00
2008,12,03,01,38,0.00
2008,12,03,01,39,0.00
2008,12,03,01,40,0.00
2008,12,03,01,41,0.00
2008,12,03,01,42,0.00
2008,12,03,01,43,0.00
2008,12,03,01,44,0.00
2008,12,03,01,45,0.00
2008,12,03,01,46,0.00
2008,12,03,01,47,0.00
2008,12,03,01,48,0.00
2008,12,03,01,49,0.00
2008,12,03,01,50,0.00
2008,12,03,01,51,0.00
2008,12,03,01,52,0.00
2008,12,03,01,53,0.00
2008,12,03,01,54,0.00
2008,12,03,01,55,0.00
2008,12,03,01,56,0.00
2008,12,03,01,57,0.00
2008,12,03,01,58,0.00
2008,12,03,01,59,0.00
2008,12,03,02,00,0.00
2008,12,03,02,01,0.00
2008,12,03,02,02,0.00
2008,12,03,02,03,0.00
2008,12,03,02,04,0.00
2008,12,03,02,05,0.00
2008,12,03,02,06,0.00
2008,12,03,02,07,0.00
2008,12,03,02,08,0.00
2008,12,03,02,09,0.00
2008,12,03,02,10,0.00
2008,12,03,02,11,0.00
2008,12,03,02,12,0.00
2008,12,03,02,13,0.00
2008,12,03,02,14,0.00
2008,12,03,02,15,0.00
2008,12,03,02,16,0.00
2008,12,03,02,17,0.00
2008,12,03,02,18,0.00
2008,12,03,02,19,0.00
2008,12,03,02,20,0.00
2008,12,03,02,21,0.00
2008,12,03,02,22,0.00
2008,12,03,02,23,0.00
2008,12,03,02,24,0.00
2008,12,03,02,25,0.00
2008,12,03,02,26,0.00
2008,12,03,02,27,0.00
2008,12,03,02,28,0.00
2008,12,03,02,29,0.00
2008,12,03,02,30,0.00
2008,12,03,02,31,0.00
2008,12,03,02,32,0.00
2008,12,03,02,33,0.00
2008,12,03,02,34,0.00
2008,12,03,02,35,0.00
2008,12,03,02,36,0.00
2008,12,03,02,37,0.00
2008,12,03,02,38,0.00
2008,12,03,02,39,0.00
2008,12,03,02,40,0.00
2008,12,03,02,41,0.00
2008,12,03,02,42,0.00
2008,12,03,02,43,0.00
2008,12,03,02,44,0.00
2008,12,03,02,45,0.00
2008,12,03,02,46,0.00
2008,12,03,02,47,0.00
2008,12,03,02,48,0.00
2008,12,03,02,49,0.00
2008,12,03,02,50,0.00
2008,12,03,02,51,0.00
2008,12,03,02,52,0.00
2008,12,03,02,53,0.00
2008,12,03,02,54,0.00
2008,12,03,02,55,0.00
2008,12,03,02,56,0.00
2008,12,03,02,57,0.00
2008,12,03,02,58,0.00
2008,12,03,02,59,0.00
2008,12,03,03,00,0.00
2008,12,03,03,01,0.00
2008,12,03,03,02,0.00
2008,12,03,03,03,0.00
2008,12,03,03,04,0.00
2008,12,03,03,05,0.00
2008,12,03,03,06,0.00
2008,12,03,03,07,0.00
2008,12,03,03,08,0.00
2008,12,03,03,09,0.00
2008,12,03,03,10,0.00
2008,12,03,03,11,0.00
2008,12,03,03,12,0.00
2008,12,03,03,13,0.00
2008,12,03,03,14,0.00
2008,12,03,03,15,0.00
2008,12,03,03,16,0.00
2008,12,03,03,17,0.00
2008,12,03,03,18,0.00
2008,12,03,03,19,0.00
2008,12,03,03,20,0.00
2008,12,03,03,21,0.00
2008,12,03,03,22,0.00
2008,12,03,03,23,0.00
2008,12,03,03,24,0.00
2008,12,03,03,25,0.00
2008,12,03,03,26,0.00
2008,12,03,03,27,0.00
2008,12,03,03,28,0.00
2008,12,03,03,29,0.00
2008,12,03,03,30,0.00
2008,12,03,03,31,0.00
2008,12,03,03,32,0.00
2008,12,03,03,33,0.00
2008,12,03,03,34,0.00
2008,12,03,03,35,0.00
2008,12,03,03,36,0.00
2008,12,03,03,37,0.00
2008,12,03,03,38,0.00
2008,12,03,03,39,0.00
2008,12,03,03,40,0.00
2008,12,03,03,41,0.00
2008,12,03,03,42,0.00
2008,12,03,03,43,0.00
2008,12,03,03,44,0.00
2008,12,03,03,45,0.00
2008,12,03,03,46,0.00
2008,12,03,03,47,0.00
2008,12,03,03,48,0.00
2008,12,03,03,49,0.00
2008,12,03,03,50,0.00
2008,12,03,03,51,0.00
2008,12,03,03,52,0.00
2008,12,03,03,53,0.00
2008,12,03,03,54,0.00
2008,12,03,03,55,0.00
2008,12,03,03,56,0.00
2008,12,03,03,57,0.00
2008,12,03,03,58,0.00
2008,12,03,03,59,0.00
2008,12,03,04,00,0.00
2008,12,03,04,01,0.00
2008,12,03,04,02,0.00
2008,12,03,04,03,0.00
2008,12,03,04,04,0.00
2008,12,03,04,05,0.00
2008,12,03,04,06,0.00
2008,12,03,04,07,0.00
2008,12,03,04,08,0.00
2008,12,03,04,09,0.00
2008,12,03,04,10,0.00
2008,12,03,04,11,0.00
2008,12,03,04,12,0.00
2008,12,03,04,13,0.00
2008,12,03,04,14,0.00
2008,12,03,04,15,0.00
2008,12,03,04,16,0.00
2008,12,03,04,17,0.00
2008,12,03,04,18,0.00
2008,12,03,04,19,0.00
2008,12,03,04,20,0.00
2008,12,03,04,21,0.00
2008,12,03,04,22,0.00
2008,12,03,04,23,0.00
2008,12,03,04,24,0.00
2008,12,03,04,25,0.00
2008,12,03,04,26,0.00
2008,12,03,04,27,0.00
2008,12,03,04,28,0.00
2008,12,03,04,29,0.00
2008,12,03,04,30,0.00
2008,12,03,04,31,0.00
2008,12,03,04,32,0.00
2008,12,03,04,33,0.00
2008,12,03,04,34,0.00
2008,12,03,04,35,0.00
2008,12,03,04,36,0.00
2008,12,03,04,37,0.00
2008,12,03,04,38,0.00
2008,12,03,04,39,0.00
2008,12,03,04,40,0.00
2008,12,03,04,41,0.00
2008,12,03,04,42,0.00
2008,12,03,04,43,0.00
2008,12,03,04,44,0.00
2008,12,03,04,45,0.00
2008,12,03,04,46,0.00
2008,12,03,04,47,0.00
2008,12,03,04,48,0.00
2008,12,03,04,49,0.00
2008,12,03,04,50,0.00
2008,12,03,04,51,0.00
2008,12,03,04,52,0.00
2008,12,03,04,53,0.00
2008,12,03,04,54,0.00
2008,12,03,04,55,0.00
2008,12,03,04,56,0.00
2008,12,03,04,57,0.00
2008,12,03,04,58,0.00
2008,12,03,04,59,0.00
2008,12,03,05,00,0.00
2008,12,03,05,01,0.00
2008,12,03,05,02,0.00
2008,12,03,05,03,0.00
2008,12,03,05,04,0.00
2008,12,03,05,05,0.00
2008,12,03,05,06,0.00
2008,12,03,05,07,0.00
2008,12,03,05,08,0.00
2008,12,03,05,09,0.00
2008,12,03,05,10,0.00
2008,12,03,05,11,0.00
2008,12,03,05,12,0.00
2008,12,03,05,13,0.00
2008,12,03,05,14,0.00
2008,12,03,05,15,0.00
2008,12,03,05,16,0.00
2008,12,03,05,17,0.00
2008,12,03,05,18,0.00
2008,12,03,05,19,0.00
2008,12,03,05,20,0.00
2008,12,03,05,21,0.00
2008,12,03,05,22,0.00
2008,12,03,05,23,0.00
2008,12,03,05,24,0.00
2008,12,03,05,25,0.00
2008,12,03,05,26,0.00
2008,12,03,05,27,0.00
2008,12,03,05,28,0.00
2008,12,03,05,29,0.00
2008,12,03,05,30,0.00
2008,12,03,05,31,0.00
2008,12,03,05,32,0.00
2008,12,03,05,33,0.00
2008,12,03,05,34,0.00
2008,12,03,05,35,0.00
2008,12,03,05,36,0.00
2008,12,03,05,37,0.00
2008,12,03,05,38,0.00
2008,12,03,05,39,0.00
2008,12,03,05,40,0.00
2008,12,03,05,41,0.00
2008,12,03,05,42,0.00
2008,12,03,05,43,0.00
2008,12,03,05,44,0.00
2008,12,03,05,45,0.00
2008,12,03,05,46,0.00
2008,12,03,05,47,0.00
2008,12,03,05,48,0.00
2008,12,03,05,49,0.00
2008,12,03,05,50,0.00
2008,12,03,05,51,0.00
2008,12,03,05,52,0.00
2008,12,03,05,53,0.00
2008,12,03,05,54,0.00
2008,12,03,05,55,0.00
2008,12,03,05,56,0.00
2008,12,03,05,57,0.00
2008,12,03,05,58,0.00
2008,12,03,05,59,0.00
2008,12,03,06,00,0.00
2008,12,03,06,01,0.00
2008,12,03,06,02,0.00
2008,12,03,06,03,0.00
2008,12,03,06,04,0.00
2008,12,03,06,05,0.00
2008,12,03,06,06,0.00
2008,12,03,06,07,0.00
2008,12,03,06,08,0.00
2008,12,03,06,09,0.00
2008,12,03,06,10,0.00
2008,12,03,06,11,0.00
2008,12,03,06,12,0.00
2008,12,03,06,13,0.00
2008,12,03,06,14,0.00
2008,12,03,06,15,0.00
2008,12,03,06,16,0.00
2008,12,03,06,17,0.00
2008,12,03,06,18,0.00
2008,12,03,06,19,0.00
2008,12,03,06,20,0.00
2008,12,03,06,21,0.00
2008,12,03,06,22,0.00
2008,12,03,06,23,0.00
2008,12,03,06,24,0.00
2008,12,03,06,25,0.00
2008,12,03,06,26,0.00
2008,12,03,06,27,0.00
2008,12,03,06,28,0.00
2008,12,03,06,29,0.00
2008,12,03,06,30,0.00
2008,12,03,06,31,0.00
2008,12,03,06,32,0.00
2008,12,03,06,33,0.00
2008,12,03,06,34,0.00
2008,12,03,06,35,0.00
2008,12,03,06,36,0.00
2008,12,03,06,37,0.00
2008,12,03,06,38,0.00
2008,12,03,06,39,0.00
2008,12,03,06,40,0.00
2008,12,03,06,41,0.00
2008,12,03,06,42,0.00
2008,12,03,06,43,0.00
2008,12,03,06,44,0.00
2008,12,03,06,45,0.00
2008,12,03,06,46,0.00
2008,12,03,06,47,0.00
2008,12,03,06,48,0.00
2008,12,03,06,49,0.00
2008,12,03,06,50,0.00
2008,12,03,06,51,0.00
2008,12,03,06,52,0.00
2008,12,03,06,53,0.00
2008,12,03,06,54,0.00
2008,12,03,06,55,0.00
2008,12,03,06,56,0.00
2008,12,03,06,57,0.00
2008,12,03,06,58,0.00
2008,12,03,06,59,0.00
2008,12,03,07,00,0.00
2008,12,03,07,01,0.00
2008,12,03,07,02,0.00
2008,12,03,07,03,0.00
2008,12,03,07,04,0.00
2008,12,03,07,05,0.00
2008,12,03,07,06,0.00
2008,12,03,07,07,0.00
2008,12,03,07,08,0.00
2008,12,03,07,09,0.00
2008,12,03,07,10,0.00
2008,12,03,07,11,0.00
2008,12,03,07,12,0.00
2008,12,03,07,13,0.00
2008,12,03,07,14,0.00
2008,12,03,07,15,0.00
2008,12,03,07,16,0.00
2008,12,03,07,17,0.00
2008,12,03,07,18,0.00
2008,12,03,07,19,0.00
2008,12,03,07,20,0.00
2008,12,03,07,21,0.00
2008,12,03,07,22,0.00
2008,12,03,07,23,0.00
2008,12,03,07,24,0.00
2008,12,03,07,25,0.00
2008,12,03,07,26,0.00
2008,12,03,07,27,0.00
2008,12,03,07,28,0.00
2008,12,03,07,29,0.00
2008,12,03,07,30,0.00
2008,12,03,07,31,0.00
2008,12,03,07,32,0.00
2008,12,03,07,33,0.00
2008,12,03,07,34,0.00
2008,12,03,07,35,0.00
2008,12,03,07,36,0.00
2008,12,03,07,37,0.00
2008,12,03,07,38,0.00
2008,12,03,07,39,0.00
2008,12,03,07,40,0.00
2008,12,03,07,41,0.00
2008,12,03,07,42,0.00
2008,12,03,07,43,0.00
2008,12,03,07,44,0.00
2008,12,03,07,45,0.00
2008,12,03,07,46,0.00
2008,12,03,07,47,0.00
2008,12,03,07,48,0.00
2008,12,03,07,49,0.00
2008,12,03,07,50,0.00
2008,12,03,07,51,0.00
2008,12,03,07,52,0.00
2008,12,03,07,53,0.00
2008,12,03,07,54,0.00
2008,12,03,07,55,0.00
2008,12,03,07,56,0.00
2008,12,03,07,57,0.00
2008,12,03,07,58,0.00
2008,12,03,07,59,0.00
2008,12,03,08,00,0.00
2008,12,03,08,01,0.00
2008,12,03,08,02,0.00
2008,12,03,08,03,0.00
2008,12,03,08,04,0.00
2008,12,03,08,05,0.00
2008,12,03,08,06,0.00
2008,12,03,08,07,0.00
2008,12,03,08,08,0.00
2008,12,03,08,09,0.00
2008,12,03,08,10,0.00
2008,12,03,08,11,0.00
2008,12,03,08,12,0.00
2008,12,03,08,13,1.70
2008,12,03,08,14,5.00
2008,12,03,08,15,5.00
2008,12,03,08,16,5.00
2008,12,03,08,17,5.00
2008,12,03,08,18,5.30
2008,12,03,08,19,7.00
2008,12,03,08,20,7.00
2008,12,03,08,21,7.00
2008,12,03,08,22,7.00
2008,12,03,08,23,7.00
2008,12,03,08,24,7.00
2008,12,03,08,25,7.00
2008,12,03,08,26,8.00
2008,12,03,08,27,9.00
2008,12,03,08,28,9.00
2008,12,03,08,29,9.00
2008,12,03,08,30,9.00
2008,12,03,08,31,9.00
2008,12,03,08,32,10.10
2008,12,03,08,33,11.00
2008,12,03,08,34,11.00
2008,12,03,08,35,11.00
2008,12,03,08,36,11.00
2008,12,03,08,37,11.00
2008,12,03,08,38,11.00
2008,12,03,08,39,11.00
2008,12,03,08,40,11.00
2008,12,03,08,41,11.00
2008,12,03,08,42,11.00
2008,12,03,08,43,11.00
2008,12,03,08,44,11.00
2008,12,03,08,45,11.00
2008,12,03,08,46,9.10
2008,12,03,08,47,9.30
2008,12,03,08,48,11.00
2008,12,03,08,49,11.00
2008,12,03,08,50,11.00
2008,12,03,08,51,11.80
2008,12,03,08,52,12.00
2008,12,03,08,53,12.20
2008,12,03,08,54,14.00
2008,12,03,08,55,15.00
2008,12,03,08,56,17.30
2008,12,03,08,57,18.80
2008,12,03,08,58,19.00
2008,12,03,08,59,21.30
2008,12,03,09,00,23.70
2008,12,03,09,01,25.50
2008,12,03,09,02,26.00
2008,12,03,09,03,27.70
2008,12,03,09,04,28.00
2008,12,03,09,05,30.00
2008,12,03,09,06,30.00
2008,12,03,09,07,30.90
2008,12,03,09,08,32.00
2008,12,03,09,09,32.00
2008,12,03,09,10,32.00
2008,12,03,09,11,33.00
2008,12,03,09,12,33.80
2008,12,03,09,13,35.00
2008,12,03,09,14,36.40
2008,12,03,09,15,37.00
2008,12,03,09,16,37.20
2008,12,03,09,17,39.00
2008,12,03,09,18,39.00
2008,12,03,09,19,39.00
2008,12,03,09,20,39.00
2008,12,03,09,21,39.90
2008,12,03,09,22,40.00
2008,12,03,09,23,39.80
2008,12,03,09,24,39.00
2008,12,03,09,25,39.00
2008,12,03,09,26,37.60
2008,12,03,09,27,35.40
2008,12,03,09,28,35.00
2008,12,03,09,29,35.00
2008,12,03,09,30,35.80
2008,12,03,09,31,37.00
2008,12,03,09,32,35.50
2008,12,03,09,33,35.00
2008,12,03,09,34,34.70
2008,12,03,09,35,33.00
2008,12,03,09,36,33.00
2008,12,03,09,37,34.10
2008,12,03,09,38,35.00
2008,12,03,09,39,36.70
2008,12,03,09,40,38.90
2008,12,03,09,41,39.00
2008,12,03,09,42,39.00
2008,12,03,09,43,39.00
2008,12,03,09,44,39.00
2008,12,03,09,45,39.00
2008,12,03,09,46,39.10
2008,12,03,09,47,40.00
2008,12,03,09,48,41.00
2008,12,03,09,49,42.00
2008,12,03,09,50,42.00
2008,12,03,09,51,42.00
2008,12,03,09,52,42.00
2008,12,03,09,53,42.80
2008,12,03,09,54,44.00
2008,12,03,09,55,45.20
2008,12,03,09,56,48.70
2008,12,03,09,57,51.20
2008,12,03,09,58,53.20
2008,12,03,09,59,54.80
2008,12,03,10,00,56.00
2008,12,03,10,01,56.00
2008,12,03,10,02,56.00
2008,12,03,10,03,56.20
2008,12,03,10,04,58.60
2008,12,03,10,05,60.90
2008,12,03,10,06,62.60
2008,12,03,10,07,66.10
2008,12,03,10,08,69.80
2008,12,03,10,09,74.50
2008,12,03,10,10,80.20
2008,12,03,10,11,86.90
2008,12,03,10,12,95.90
2008,12,03,10,13,101.60
2008,12,03,10,14,100.10
2008,12,03,10,15,94.70
2008,12,03,10,16,91.40
2008,12,03,10,17,84.50
2008,12,03,10,18,81.00
2008,12,03,10,19,81.00
2008,12,03,10,20,81.00
2008,12,03,10,21,81.00
2008,12,03,10,22,82.00
2008,12,03,10,23,85.00
2008,12,03,10,24,86.00
2008,12,03,10,25,95.20
2008,12,03,10,26,97.40
2008,12,03,10,27,105.40
2008,12,03,10,28,108.60
2008,12,03,10,29,111.00
2008,12,03,10,30,114.60
2008,12,03,10,31,117.60
2008,12,03,10,32,114.00
2008,12,03,10,33,114.40
2008,12,03,10,34,116.70
2008,12,03,10,35,114.20
2008,12,03,10,36,109.60
2008,12,03,10,37,110.80
2008,12,03,10,38,113.10
2008,12,03,10,39,113.30
2008,12,03,10,40,109.40
2008,12,03,10,41,104.10
2008,12,03,10,42,100.60
2008,12,03,10,43,100.00
2008,12,03,10,44,99.80
2008,12,03,10,45,98.00
2008,12,03,10,46,98.00
2008,12,03,10,47,98.00
2008,12,03,10,48,99.60
2008,12,03,10,49,103.80
2008,12,03,10,50,109.70
2008,12,03,10,51,114.60
2008,12,03,10,52,116.90
2008,12,03,10,53,119.20
2008,12,03,10,54,120.80
2008,12,03,10,55,124.80
2008,12,03,10,56,125.00
2008,12,03,10,57,124.40
2008,12,03,10,58,123.00
2008,12,03,10,59,123.00
2008,12,03,11,00,124.60
2008,12,03,11,01,125.00
2008,12,03,11,02,123.00
2008,12,03,11,03,122.40
2008,12,03,11,04,120.50
2008,12,03,11,05,120.00
2008,12,03,11,06,118.40
2008,12,03,11,07,116.00
2008,12,03,11,08,116.00
2008,12,03,11,09,116.70
2008,12,03,11,10,120.50
2008,12,03,11,11,126.50
2008,12,03,11,12,131.30
2008,12,03,11,13,137.30
2008,12,03,11,14,142.80
2008,12,03,11,15,146.00
2008,12,03,11,16,146.00
2008,12,03,11,17,146.00
2008,12,03,11,18,147.80
2008,12,03,11,19,149.10
2008,12,03,11,20,151.50
2008,12,03,11,21,153.00
2008,12,03,11,22,154.00
2008,12,03,11,23,155.00
2008,12,03,11,24,155.00
2008,12,03,11,25,153.20
2008,12,03,11,26,153.00
2008,12,03,11,27,153.90
2008,12,03,11,28,155.60
2008,12,03,11,29,155.20
2008,12,03,11,30,151.20
2008,12,03,11,31,147.70
2008,12,03,11,32,145.40
2008,12,03,11,33,142.60
2008,12,03,11,34,138.50
2008,12,03,11,35,133.30
2008,12,03,11,36,127.30
2008,12,03,11,37,119.90
2008,12,03,11,38,111.70
2008,12,03,11,39,105.60
2008,12,03,11,40,101.40
2008,12,03,11,41,100.00
2008,12,03,11,42,100.00
2008,12,03,11,43,100.30
2008,12,03,11,44,102.70
2008,12,03,11,45,104.00
2008,12,03,11,46,104.00
2008,12,03,11,47,102.40
2008,12,03,11,48,97.90
2008,12,03,11,49,94.60
2008,12,03,11,50,92.40
2008,12,03,11,51,90.50
2008,12,03,11,52,90.70
2008,12,03,11,53,91.00
2008,12,03,11,54,92.80
2008,12,03,11,55,95.40
2008,12,03,11,56,97.40
2008,12,03,11,57,99.10
2008,12,03,11,58,100.00
2008,12,03,11,59,101.80
2008,12,03,12,00,104.10
2008,12,03,12,01,105.50
2008,12,03,12,02,107.70
2008,12,03,12,03,110.80
2008,12,03,12,04,113.80
2008,12,03,12,05,115.80
2008,12,03,12,06,118.00
2008,12,03,12,07,118.00
2008,12,03,12,08,117.10
2008,12,03,12,09,116.00
2008,12,03,12,10,114.40
2008,12,03,12,11,111.20
2008,12,03,12,12,106.80
2008,12,03,12,13,104.80
2008,12,03,12,14,103.10
2008,12,03,12,15,99.50
2008,12,03,12,16,97.20
2008,12,03,12,17,95.10
2008,12,03,12,18,95.00
2008,12,03,12,19,95.70
2008,12,03,12,20,98.50
2008,12,03,12,21,100.00
2008,12,03,12,22,103.20
2008,12,03,12,23,102.00
2008,12,03,12,24,99.60
2008,12,03,12,25,95.20
2008,12,03,12,26,89.50
2008,12,03,12,27,85.80
2008,12,03,12,28,84.00
2008,12,03,12,29,84.10
2008,12,03,12,30,86.40
2008,12,03,12,31,89.10
2008,12,03,12,32,93.10
2008,12,03,12,33,98.40
2008,12,03,12,34,104.20
2008,12,03,12,35,109.00
2008,12,03,12,36,191.50
2008,12,03,12,37,166.90
2008,12,03,12,38,118.00
2008,12,03,12,39,115.10
2008,12,03,12,40,117.00
2008,12,03,12,41,129.10
2008,12,03,12,42,149.70
2008,12,03,12,43,160.60
2008,12,03,12,44,181.80
2008,12,03,12,45,207.80
2008,12,03,12,46,231.80
2008,12,03,12,47,269.90
2008,12,03,12,48,235.50
2008,12,03,12,49,288.40
2008,12,03,12,50,310.20
2008,12,03,12,51,310.00
2008,12,03,12,52,324.10
2008,12,03,12,53,324.90
2008,12,03,12,54,339.80
2008,12,03,12,55,348.00
2008,12,03,12,56,369.70
2008,12,03,12,57,383.00
2008,12,03,12,58,377.20
2008,12,03,12,59,369.00
2008,12,03,13,00,337.40
2008,12,03,13,01,293.00
2008,12,03,13,02,276.20
2008,12,03,13,03,226.10
2008,12,03,13,04,200.80
2008,12,03,13,05,214.30
2008,12,03,13,06,228.90
2008,12,03,13,07,237.50
2008,12,03,13,08,208.80
2008,12,03,13,09,186.80
2008,12,03,13,10,167.70
2008,12,03,13,11,139.10
2008,12,03,13,12,123.80
2008,12,03,13,13,111.50
2008,12,03,13,14,101.00
2008,12,03,13,15,91.10
2008,12,03,13,16,81.00
2008,12,03,13,17,80.00
2008,12,03,13,18,77.10
2008,12,03,13,19,81.80
2008,12,03,13,20,89.10
2008,12,03,13,21,97.30
2008,12,03,13,22,104.30
2008,12,03,13,23,107.50
2008,12,03,13,24,107.00
2008,12,03,13,25,102.90
2008,12,03,13,26,99.50
2008,12,03,13,27,95.60
2008,12,03,13,28,92.70
2008,12,03,13,29,90.00
2008,12,03,13,30,90.00
2008,12,03,13,31,89.00
2008,12,03,13,32,85.00
2008,12,03,13,33,79.30
2008,12,03,13,34,73.60
2008,12,03,13,35,69.20
2008,12,03,13,36,65.20
2008,12,03,13,37,62.50
2008,12,03,13,38,62.00
2008,12,03,13,39,60.10
2008,12,03,13,40,57.70
2008,12,03,13,41,56.00
2008,12,03,13,42,57.00
2008,12,03,13,43,59.30
2008,12,03,13,44,62.40
2008,12,03,13,45,66.80
2008,12,03,13,46,70.60
2008,12,03,13,47,75.10
2008,12,03,13,48,79.00
2008,12,03,13,49,82.10
2008,12,03,13,50,83.70
2008,12,03,13,51,84.10
2008,12,03,13,52,86.40
2008,12,03,13,53,89.80
2008,12,03,13,54,96.90
2008,12,03,13,55,102.00
2008,12,03,13,56,112.10
2008,12,03,13,57,108.70
2008,12,03,13,58,104.20
2008,12,03,13,59,105.00
2008,12,03,14,00,113.80
2008,12,03,14,01,126.40
2008,12,03,14,02,130.00
2008,12,03,14,03,131.90
2008,12,03,14,04,128.20
2008,12,03,14,05,123.00
2008,12,03,14,06,125.40
2008,12,03,14,07,128.00
2008,12,03,14,08,125.30
2008,12,03,14,09,119.90
2008,12,03,14,10,112.40
2008,12,03,14,11,99.60
2008,12,03,14,12,80.70
2008,12,03,14,13,71.40
2008,12,03,14,14,67.20
2008,12,03,14,15,65.30
2008,12,03,14,16,69.80
2008,12,03,14,17,81.70
2008,12,03,14,18,97.10
2008,12,03,14,19,104.40
2008,12,03,14,20,105.00
2008,12,03,14,21,105.30
2008,12,03,14,22,107.70
2008,12,03,14,23,109.90
2008,12,03,14,24,109.70
2008,12,03,14,25,107.40
2008,12,03,14,26,104.40
2008,12,03,14,27,105.60
2008,12,03,14,28,109.70
2008,12,03,14,29,111.00
2008,12,03,14,30,109.70
2008,12,03,14,31,106.10
2008,12,03,14,32,104.60
2008,12,03,14,33,94.30
2008,12,03,14,34,81.20
2008,12,03,14,35,76.00
2008,12,03,14,36,76.70
2008,12,03,14,37,70.10
2008,12,03,14,38,66.80
2008,12,03,14,39,62.40
2008,12,03,14,40,59.30
2008,12,03,14,41,59.10
2008,12,03,14,42,62.10
2008,12,03,14,43,64.80
2008,12,03,14,44,65.40
2008,12,03,14,45,71.60
2008,12,03,14,46,70.00
2008,12,03,14,47,70.00
2008,12,03,14,48,75.10
2008,12,03,14,49,87.00
2008,12,03,14,50,93.50
2008,12,03,14,51,99.00
2008,12,03,14,52,102.00
2008,12,03,14,53,102.00
2008,12,03,14,54,100.50
2008,12,03,14,55,101.90
2008,12,03,14,56,104.00
2008,12,03,14,57,104.30
2008,12,03,14,58,105.00
2008,12,03,14,59,98.20
2008,12,03,15,00,86.00
2008,12,03,15,01,74.50
2008,12,03,15,02,66.40
2008,12,03,15,03,62.20
2008,12,03,15,04,59.00
2008,12,03,15,05,56.70
2008,12,03,15,06,53.60
2008,12,03,15,07,51.00
2008,12,03,15,08,50.70
2008,12,03,15,09,49.00
2008,12,03,15,10,49.00
2008,12,03,15,11,47.90
2008,12,03,15,12,46.20
2008,12,03,15,13,46.00
2008,12,03,15,14,43.70
2008,12,03,15,15,41.30
2008,12,03,15,16,38.40
2008,12,03,15,17,35.60
2008,12,03,15,18,33.30
2008,12,03,15,19,32.00
2008,12,03,15,20,29.20
2008,12,03,15,21,25.70
2008,12,03,15,22,25.00
2008,12,03,15,23,23.60
2008,12,03,15,24,21.20
2008,12,03,15,25,19.00
2008,12,03,15,26,19.00
2008,12,03,15,27,19.00
2008,12,03,15,28,19.00
2008,12,03,15,29,20.50
2008,12,03,15,30,22.80
2008,12,03,15,31,23.00
2008,12,03,15,32,23.00
2008,12,03,15,33,22.20
2008,12,03,15,34,21.00
2008,12,03,15,35,21.00
2008,12,03,15,36,19.10
2008,12,03,15,37,19.00
2008,12,03,15,38,19.00
2008,12,03,15,39,19.00
2008,12,03,15,40,19.00
2008,12,03,15,41,19.00
2008,12,03,15,42,22.80
2008,12,03,15,43,20.70
2008,12,03,15,44,19.00
2008,12,03,15,45,18.50
2008,12,03,15,46,18.00
2008,12,03,15,47,18.00
2008,12,03,15,48,18.00
2008,12,03,15,49,18.00
2008,12,03,15,50,18.00
2008,12,03,15,51,18.00
2008,12,03,15,52,18.00
2008,12,03,15,53,18.80
2008,12,03,15,54,19.00
2008,12,03,15,55,19.00
2008,12,03,15,56,19.00
2008,12,03,15,57,19.00
2008,12,03,15,58,19.00
2008,12,03,15,59,18.10
2008,12,03,16,00,17.90
2008,12,03,16,01,16.00
2008,12,03,16,02,15.20
2008,12,03,16,03,14.00
2008,12,03,16,04,12.80
2008,12,03,16,05,12.00
2008,12,03,16,06,11.00
2008,12,03,16,07,10.60
2008,12,03,16,08,9.00
2008,12,03,16,09,9.00
2008,12,03,16,10,9.00
2008,12,03,16,11,7.20
2008,12,03,16,12,7.00
2008,12,03,16,13,7.00
2008,12,03,16,14,7.00
2008,12,03,16,15,7.00
2008,12,03,16,16,5.50
2008,12,03,16,17,5.00
2008,12,03,16,18,5.00
2008,12,03,16,19,5.00
2008,12,03,16,20,5.00
2008,12,03,16,21,5.00
2008,12,03,16,22,5.00
2008,12,03,16,23,0.20
2008,12,03,16,24,0.00
2008,12,03,16,25,0.00
2008,12,03,16,26,0.00
2008,12,03,16,27,0.00
2008,12,03,16,28,0.00
2008,12,03,16,29,0.00
2008,12,03,16,30,0.00
2008,12,03,16,31,0.00
2008,12,03,16,32,0.00
2008,12,03,16,33,0.00
2008,12,03,16,34,0.00
2008,12,03,16,35,0.00
2008,12,03,16,36,0.00
2008,12,03,16,37,0.00
2008,12,03,16,38,0.00
2008,12,03,16,39,0.00
2008,12,03,16,40,0.00
2008,12,03,16,41,0.00
2008,12,03,16,42,0.00
2008,12,03,16,43,0.00
2008,12,03,16,44,0.00
2008,12,03,16,45,0.00
2008,12,03,16,46,0.00
2008,12,03,16,47,0.00
2008,12,03,16,48,0.00
2008,12,03,16,49,0.00
2008,12,03,16,50,0.00
2008,12,03,16,51,0.00
2008,12,03,16,52,0.00
2008,12,03,16,53,0.00
2008,12,03,16,54,0.00
2008,12,03,16,55,0.00
2008,12,03,16,56,0.00
2008,12,03,16,57,0.00
2008,12,03,16,58,0.00
2008,12,03,16,59,0.00
2008,12,03,17,00,0.00
2008,12,03,17,01,0.00
2008,12,03,17,02,0.00
2008,12,03,17,03,0.00
2008,12,03,17,04,0.00
2008,12,03,17,05,0.00
2008,12,03,17,06,0.00
2008,12,03,17,07,0.00
2008,12,03,17,08,0.00
2008,12,03,17,09,0.00
2008,12,03,17,10,0.00
2008,12,03,17,11,0.00
2008,12,03,17,12,0.00
2008,12,03,17,13,0.00
2008,12,03,17,14,0.00
2008,12,03,17,15,0.00
2008,12,03,17,16,0.00
2008,12,03,17,17,0.00
2008,12,03,17,18,0.00
2008,12,03,17,19,0.00
2008,12,03,17,20,0.00
2008,12,03,17,21,0.00
2008,12,03,17,22,0.00
2008,12,03,17,23,0.00
2008,12,03,17,24,0.00
2008,12,03,17,25,0.00
2008,12,03,17,26,0.00
2008,12,03,17,27,0.00
2008,12,03,17,28,0.00
2008,12,03,17,29,0.00
2008,12,03,17,30,0.00
2008,12,03,17,31,0.00
2008,12,03,17,32,0.00
2008,12,03,17,33,0.00
2008,12,03,17,34,0.00
2008,12,03,17,35,0.00
2008,12,03,17,36,0.00
2008,12,03,17,37,0.00